Time,TemperatureF,DewpointF,PressureIn,WindDirection,WindDirectionDegrees,WindSpeedMPH,WindSpeedGustMPH,Humidity,HourlyPrecipIn,Conditions,Clouds,dailyrainin,SoftwareType,DateUTC
2013-07-30 07:33:00,72.0,70.0,30.04,North,350,5.0,-999.0,94,-99.99,,,-99.99,,2013-07-30 12:33:00,
2013-07-30 07:42:00,72.0,70.0,30.04,NNW,340,8.0,-999.0,94,-99.99,,,-99.99,,2013-07-30 12:42:00,
2013-07-30 07:53:00,70.0,70.0,30.04,North,350,7.0,-999.0,100,-99.99,,,-99.99,,2013-07-30 12:53:00,
2013-07-30 08:32:00,70.0,70.0,30.05,NNW,340,10.0,-999.0,100,-99.99,,,-99.99,,2013-07-30 13:32:00,
2013-07-30 08:42:00,70.0,70.0,30.06,North,350,9.0,-999.0,100,-99.99,,,-99.99,,2013-07-30 13:42:00,
2013-07-30 09:02:00,70.0,70.0,30.06,North,350,7.0,-999.0,100,-99.99,,,-99.99,,2013-07-30 14:02:00,
2013-07-30 09:33:00,72.0,70.0,30.06,North,350,8.0,-999.0,94,-99.99,,,-99.99,,2013-07-30 14:33:00,
2013-07-30 09:43:00,70.0,70.0,30.07,North,360,9.0,-999.0,100,-99.99,,,-99.99,,2013-07-30 14:43:00,
2013-07-30 09:53:00,72.0,70.0,30.07,North,350,8.0,-999.0,94,-99.99,,,-99.99,,2013-07-30 14:53:00,
2013-07-30 10:02:00,72.0,70.0,30.07,North,350,8.0,-999.0,94,-99.99,,,-99.99,,2013-07-30 15:02:00,
2013-07-30 10:12:00,72.0,70.0,30.07,NNW,340,6.0,-999.0,94,-99.99,,,-99.99,,2013-07-30 15:12:00,
2013-07-30 10:33:00,72.0,70.0,30.07,North,350,8.0,-999.0,94,-99.99,,,-99.99,,2013-07-30 15:33:00,
2013-07-30 10:43:00,72.0,72.0,30.07,North,350,8.0,-999.0,100,-99.99,,,-99.99,,2013-07-30 15:43:00,
2013-07-30 11:02:00,72.0,72.0,30.07,NNE,20,6.0,-999.0,100,-99.99,,,-99.99,,2013-07-30 16:02:00,
2013-07-30 11:43:00,73.0,72.0,30.08,North,360,5.0,-999.0,94,-99.99,,,-99.99,,2013-07-30 16:43:00,
2013-07-30 12:32:00,73.0,72.0,30.08,North,360,6.0,-999.0,94,-99.99,,,-99.99,,2013-07-30 17:32:00,
2013-07-30 12:43:00,73.0,72.0,30.09,North,350,8.0,-999.0,94,-99.99,,,-99.99,,2013-07-30 17:43:00,
2013-07-30 12:53:00,75.0,72.0,30.08,NNW,340,6.0,-999.0,88,-99.99,,,-99.99,,2013-07-30 17:53:00,
2013-07-30 13:12:00,75.0,72.0,30.08,NNW,340,5.0,-999.0,88,-99.99,,,-99.99,,2013-07-30 18:12:00,
2013-07-30 13:23:00,75.0,72.0,30.08,NNW,340,3.0,-999.0,88,-99.99,,,-99.99,,2013-07-30 18:23:00,
2013-07-30 13:32:00,75.0,72.0,30.08,North,350,5.0,-999.0,88,-99.99,,,-99.99,,2013-07-30 18:32:00,
2013-07-30 13:42:00,75.0,72.0,30.08,North,350,6.0,-999.0,88,-99.99,,,-99.99,,2013-07-30 18:42:00,
2013-07-30 13:52:00,75.0,72.0,30.08,North,360,6.0,-999.0,88,-99.99,,,-99.99,,2013-07-30 18:52:00,
2013-07-30 14:02:00,77.0,72.0,30.08,North,360,5.0,-999.0,83,-99.99,,,-99.99,,2013-07-30 19:02:00,
2013-07-30 14:33:00,77.0,72.0,30.08,NNW,340,5.0,-999.0,83,-99.99,,,-99.99,,2013-07-30 19:33:00,
2013-07-30 14:44:00,77.0,72.0,30.07,North,10,5.0,-999.0,83,-99.99,,,-99.99,,2013-07-30 19:44:00,
2013-07-30 14:52:00,77.0,72.0,30.07,NW,320,3.0,-999.0,83,-99.99,,,-99.99,,2013-07-30 19:52:00,
2013-07-30 15:02:00,79.0,72.0,30.07,North,350,3.0,-999.0,78,-99.99,,,-99.99,,2013-07-30 20:02:00,
2013-07-30 15:32:00,79.0,72.0,30.07,NNE,30,3.0,-999.0,78,-99.99,,,-99.99,,2013-07-30 20:32:00,
2013-07-30 15:43:00,79.0,72.0,30.07,North,350,7.0,-999.0,78,-99.99,,,-99.99,,2013-07-30 20:43:00,
2013-07-30 15:52:00,79.0,72.0,30.07,North,360,6.0,-999.0,78,-99.99,,,-99.99,,2013-07-30 20:52:00,
2013-07-30 16:02:00,79.0,72.0,30.07,North,350,6.0,-999.0,78,-99.99,,,-99.99,,2013-07-30 21:02:00,
2013-07-30 16:22:00,79.0,72.0,30.07,North,360,3.0,-999.0,78,-99.99,,,-99.99,,2013-07-30 21:22:00,
2013-07-30 16:32:00,79.0,72.0,30.07,North,10,3.0,-999.0,78,-99.99,,,-99.99,,2013-07-30 21:32:00,
2013-07-30 16:42:00,81.0,72.0,30.07,North,0,0.0,-999.0,74,-99.99,,,-99.99,,2013-07-30 21:42:00,
2013-07-30 16:52:00,81.0,72.0,30.07,North,360,5.0,-999.0,74,-99.99,,,-99.99,,2013-07-30 21:52:00,
2013-07-30 17:02:00,81.0,72.0,30.07,North,0,0.0,-999.0,74,-99.99,,,-99.99,,2013-07-30 22:02:00,
2013-07-30 17:12:00,81.0,72.0,30.07,North,0,0.0,-999.0,74,-99.99,,,-99.99,,2013-07-30 22:12:00,
2013-07-30 17:22:00,81.0,72.0,30.07,NNE,30,6.0,-999.0,74,-99.99,,,-99.99,,2013-07-30 22:22:00,
2013-07-30 17:32:00,81.0,72.0,30.07,NNE,20,3.0,-999.0,74,-99.99,,,-99.99,,2013-07-30 22:32:00,
2013-07-30 17:43:00,81.0,72.0,30.07,NE,50,3.0,-999.0,74,-99.99,,,-99.99,,2013-07-30 22:43:00,
2013-07-30 17:52:00,81.0,72.0,30.07,NNE,30,3.0,-999.0,74,-99.99,,,-99.99,,2013-07-30 22:52:00,
2013-07-30 18:02:00,81.0,72.0,30.06,NNE,30,5.0,-999.0,74,-99.99,,,-99.99,,2013-07-30 23:02:00,
2013-07-30 18:22:00,81.0,73.0,30.06,North,360,7.0,-999.0,78,-99.99,,,-99.99,,2013-07-30 23:22:00,
2013-07-30 18:32:00,81.0,72.0,30.06,North,10,7.0,-999.0,74,-99.99,,,-99.99,,2013-07-30 23:32:00,
2013-07-30 18:42:00,81.0,72.0,30.06,NE,40,7.0,-999.0,74,-99.99,,,-99.99,,2013-07-30 23:42:00,
2013-07-30 18:53:00,81.0,72.0,30.06,NNE,20,5.0,-999.0,74,-99.99,,,-99.99,,2013-07-30 23:53:00,
2013-07-30 19:02:00,81.0,72.0,30.05,NE,40,6.0,-999.0,74,-99.99,,,-99.99,,2013-07-31 00:02:00,
2013-07-30 19:12:00,81.0,72.0,30.05,NE,40,8.0,-999.0,74,-99.99,,,-99.99,,2013-07-31 00:12:00,
2013-07-30 19:22:00,81.0,72.0,30.05,NE,40,7.0,-999.0,74,-99.99,,,-99.99,,2013-07-31 00:22:00,
2013-07-30 19:43:00,79.0,72.0,30.05,ENE,60,7.0,-999.0,78,-99.99,,,-99.99,,2013-07-31 00:43:00,
2013-07-30 19:53:00,81.0,73.0,30.05,ENE,60,6.0,-999.0,78,-99.99,,,-99.99,,2013-07-31 00:53:00,
2013-07-30 20:02:00,79.0,72.0,30.05,NE,40,6.0,-999.0,78,-99.99,,,-99.99,,2013-07-31 01:02:00,
2013-07-30 20:12:00,79.0,72.0,30.05,NE,40,7.0,-999.0,78,-99.99,,,-99.99,,2013-07-31 01:12:00,
2013-07-30 20:22:00,79.0,72.0,30.05,NE,50,6.0,-999.0,78,-99.99,,,-99.99,,2013-07-31 01:22:00,
2013-07-30 20:32:00,79.0,72.0,30.05,NE,40,5.0,-999.0,78,-99.99,,,-99.99,,2013-07-31 01:32:00,
2013-07-30 20:42:00,77.0,72.0,30.06,NE,40,3.0,-999.0,83,-99.99,,,-99.99,,2013-07-31 01:42:00,
2013-07-30 20:52:00,75.0,72.0,30.06,NE,40,3.0,-999.0,88,-99.99,,,-99.99,,2013-07-31 01:52:00,
2013-07-30 21:02:00,75.0,72.0,30.06,North,0,0.0,-999.0,88,-99.99,,,-99.99,,2013-07-31 02:02:00,
2013-07-30 21:12:00,75.0,72.0,30.06,North,0,0.0,-999.0,88,-99.99,,,-99.99,,2013-07-31 02:12:00,
2013-07-30 21:22:00,73.0,72.0,30.06,North,0,0.0,-999.0,94,-99.99,,,-99.99,,2013-07-31 02:22:00,
2013-07-30 21:32:00,75.0,72.0,30.06,North,0,0.0,-999.0,88,-99.99,,,-99.99,,2013-07-31 02:32:00,
2013-07-30 21:42:00,73.0,72.0,30.07,North,0,0.0,-999.0,94,-99.99,,,-99.99,,2013-07-31 02:42:00,
2013-07-30 21:52:00,73.0,72.0,30.07,North,0,0.0,-999.0,94,-99.99,,,-99.99,,2013-07-31 02:52:00,
2013-07-30 22:02:00,73.0,72.0,30.08,North,0,0.0,-999.0,94,-99.99,,,-99.99,,2013-07-31 03:02:00,
2013-07-30 22:22:00,73.0,72.0,30.09,North,0,0.0,-999.0,94,-99.99,,,-99.99,,2013-07-31 03:22:00,
2013-07-30 22:32:00,72.0,72.0,30.10,North,350,3.0,-999.0,100,-99.99,,,-99.99,,2013-07-31 03:32:00,
2013-07-30 22:42:00,72.0,72.0,30.11,North,360,5.0,-999.0,100,-99.99,,,-99.99,,2013-07-31 03:42:00,
2013-07-30 23:02:00,72.0,70.0,30.11,NNE,20,5.0,-999.0,94,-99.99,,,-99.99,,2013-07-31 04:02:00,
2013-07-30 23:22:00,72.0,70.0,30.11,NNE,30,3.0,-999.0,94,-99.99,,,-99.99,,2013-07-31 04:22:00,
2013-07-30 23:32:00,72.0,70.0,30.12,NNE,20,5.0,-999.0,94,-99.99,,,-99.99,,2013-07-31 04:32:00,
2013-07-30 23:42:00,72.0,70.0,30.12,North,0,0.0,-999.0,94,-99.99,,,-99.99,,2013-07-31 04:42:00,
2013-07-30 23:52:00,72.0,70.0,30.12,NNE,30,5.0,-999.0,94,-99.99,,,-99.99,,2013-07-31 04:52:00,